Youngstown, OH

9:27 PM EDT on April 24, 2018 (GMT -0400)
Youngstown-Warren Regional

Weather History for KYNG - November, 2012

Change the Weather History Date:

Thursday, November 29, 2012

  Actual Average Record
Temperature  
Mean Temperature 36 °F 36 °F  
Max Temperature 46 °F 43 °F 66 °F (2005)
Min Temperature 26 °F 30 °F 5 °F (1976)
Degree Days  
Heating Degree Days 29 29  
Month to date heating degree days 759 679  
Since 1 July heating degree days 1355 1300  
Cooling Degree Days 0 0  
Month to date cooling degree days 0 0  
Year to date cooling degree days 761 544  
Moisture  
Dew Point 20 °F    
Average Humidity 57    
Maximum Humidity 81    
Minimum Humidity 33    
Precipitation  
Precipitation 0.00 in 0.10 in 1.54 in (2005)
Month to date precipitation 0.82 3.07  
Year to date precipitation 39.90 35.81  
Snow  
Snow 0.00 in 0.30 in - ()
Month to date snowfall 2.9 3.4  
Since 1 July snowfall 2.9 4.2  
Since 1 September snowfall 2.9 4.2  
Snow Depth 0.00 in    
Sea Level Pressure  
Sea Level Pressure 30.33 in    
Wind  
Wind Speed 7 mph (SSW)    
Max Wind Speed 15 mph    
Max Gust Speed 18 mph    
Visibility 9 miles    
Events      
T = Trace of Precipitation, MM = Missing Value Source: NWS Daily Summary

Daily Weather History Graph

Daily Weather History Graph

Search for Another Location

Airport or City:

Astronomy

Nov. 29, 2012 Rise Set
Actual Time 7:27 AM EST 4:54 PM EST
Civil Twilight 6:56 AM EST 5:25 PM EST
Nautical Twilight 6:22 AM EST 5:59 PM EST
Astronomical Twilight 5:49 AM EST 6:32 PM EST
Moon 5:56 PM EST (11/29) 8:12 AM EST (11/29)
Length of Visible Light 10h 28m
Length of Day
9h 27m
Full, 99% of the Moon is Illuminated
Nov 29
Full
Dec 6
Last Quarter
Dec 13
New
Dec 20
First Quarter
Dec 28
Full

Hourly Weather History & Observations

Time (EST) Temp. Windchill Dew Point Humidity Pressure Visibility Wind Dir Wind Speed Gust Speed Precip Events Conditions
12:51 AM 28.0 °F 20.8 °F 21.9 °F 78% 30.35 in 8.0 mi SW 6.9 mph - N/A   Scattered Clouds
1:51 AM 26.6 °F 20.0 °F 21.2 °F 80% 30.31 in 7.0 mi SW 5.8 mph - N/A   Scattered Clouds
2:51 AM 26.6 °F 20.0 °F 21.2 °F 80% 30.32 in 7.0 mi SSW 5.8 mph - N/A   Scattered Clouds
3:51 AM 27.0 °F 20.5 °F 21.9 °F 81% 30.36 in 7.0 mi SSW 5.8 mph - N/A   Scattered Clouds
4:51 AM 27.0 °F 19.5 °F 21.0 °F 78% 30.37 in 7.0 mi SSW 6.9 mph - N/A   Scattered Clouds
5:51 AM 27.0 °F 21.6 °F 21.0 °F 78% 30.37 in 7.0 mi SSW 4.6 mph - N/A   Overcast
6:51 AM 27.0 °F 20.5 °F 21.0 °F 78% 30.38 in 8.0 mi SSW 5.8 mph - N/A   Overcast
7:51 AM 27.0 °F 21.6 °F 21.9 °F 81% 30.38 in 7.0 mi SSW 4.6 mph - N/A   Mostly Cloudy
8:51 AM 30.0 °F 23.2 °F 23.0 °F 75% 30.38 in 7.0 mi SSW 6.9 mph - N/A   Mostly Cloudy
9:51 AM 33.1 °F 26.1 °F 23.0 °F 66% 30.38 in 8.0 mi SSW 8.1 mph - N/A   Mostly Cloudy
10:51 AM 39.0 °F 32.8 °F 23.0 °F 53% 30.37 in 10.0 mi SW 9.2 mph - N/A   Scattered Clouds
11:51 AM 42.1 °F 35.7 °F 19.9 °F 41% 30.34 in 10.0 mi SW 11.5 mph - N/A   Partly Cloudy
12:51 PM 44.1 °F 38.1 °F 19.9 °F 38% 30.32 in 10.0 mi SSW 11.5 mph - N/A   Partly Cloudy
1:51 PM 45.0 °F 38.9 °F 17.1 °F 33% 30.30 in 10.0 mi WSW 12.7 mph - N/A   Partly Cloudy
2:51 PM 45.0 °F 39.7 °F 18.0 °F 34% 30.28 in 10.0 mi SW 10.4 mph - N/A   Partly Cloudy
3:51 PM 44.1 °F 39.0 °F 18.0 °F 35% 30.28 in 10.0 mi SSW 9.2 mph - N/A   Scattered Clouds
4:51 PM 41.0 °F 38.0 °F 18.0 °F 40% 30.28 in 10.0 mi SSW 4.6 mph - N/A   Scattered Clouds
5:51 PM 39.0 °F 36.8 °F 18.0 °F 43% 30.28 in 10.0 mi SSW 3.5 mph - N/A   Partly Cloudy
6:51 PM 37.9 °F 35.5 °F 18.0 °F 45% 30.29 in 10.0 mi South 3.5 mph - N/A   Partly Cloudy
7:51 PM 37.0 °F 34.5 °F 18.0 °F 46% 30.30 in 10.0 mi South 3.5 mph - N/A   Partly Cloudy
8:51 PM 36.0 °F 31.1 °F 19.0 °F 50% 30.30 in 10.0 mi South 5.8 mph - N/A   Partly Cloudy
9:51 PM 35.1 °F 31.0 °F 19.0 °F 52% 30.30 in 10.0 mi South 4.6 mph - N/A   Partly Cloudy
10:51 PM 35.1 °F 30.1 °F 19.0 °F 52% 30.29 in 10.0 mi South 5.8 mph - N/A   Mostly Cloudy
11:51 PM 35.1 °F 29.3 °F 19.9 °F 54% 30.29 in 10.0 mi South 6.9 mph - N/A   Overcast